Location: Squirrel Cove
(50.1074°N, 124.9139°W)
Time: 13:29:45
(UTC-07:00)

PCSat - Pass Details

Date: 20 May 2022
Orbit: 784 x 795 km, 67.1° (Epoch: 26 June)

Event Time Altitude Azimuth Distance (km) Brightness Sun altitude
Rises 00:01:15 0° 304° (WNW) 3,300 13.6 -18.0°
Reaches altitude 10° 00:05:09 10° 331° (NNW) 2,373 13.3 -18.2°
Maximum altitude 00:07:38 13° 359° (N) 2,163 12.9 -18.3°
Drops below altitude 10° 00:10:08 10° 26° (NNE) 2,374 12.7 -18.4°
Sets 00:14:02 0° 54° (NE) 3,304 13.1 -18.6°
